Regional Weather Roundup
Issued by NWS

Home | Current Version | Previous Version | Graphics & Text | Print | Product List | Glossary On
Versions: 1 2 3 4 5 6 7 8 9 10 11 12 13 14 15 16 17 18 19 20 21 22 23 24 25 26 27 28 29 30 31 32 33 34 35 36 37 38 39 40 41 42 43 44 45 46 47 48 49 50
000
ASUS43 KFSD 062002
RWRSD

WEATHER ROUNDUP FOR SOUTH DAKOTA
NATIONAL WEATHER SERVICE SIOUX FALLS SD
200 PM CST TUE DEC 06 2016

NOTE: "FAIR" INDICATES FEW OR NO CLOUDS BELOW 12,000 FEET WITH NO
SIGNIFICANT WEATHER AND/OR OBSTRUCTIONS TO VISIBILITY.


SDZ001>005-009-010-012>017-062100-
NORTHWEST AND NORTH CENTRAL SOUTH DAKOTA

CITY           SKY/WX    TMP DP  RH WIND       PRES   REMARKS
BUFFALO          N/A      8  -1  66 NW30      29.89F WCI -15
FAITH            N/A      8   2  76 NW32G41   29.95S WCI -16
MOBRIDGE       CLOUDY    13   3  64 NW32G41   29.90S WCI  -9
$$

SDZ012>016-024>037-041>051-057-063-072>074-062100-
SOUTHWEST AND SOUTH CENTRAL SOUTH DAKOTA

CITY           SKY/WX    TMP DP  RH WIND       PRES   REMARKS
RAPID CTY ARPT SUNNY     19   2  47 N24G30    29.95S WCI   2
PIERRE         CLOUDY    14   5  67 W30       29.97F WCI  -7
CUSTER         SUNNY     16  -6  37 N9        29.79F WCI   4
PHILIP         SUNNY     17   4  56 NW22G35   30.01F WCI   0
PINE RIDGE     SUNNY     18   7  62 W13       29.98S WCI   5
SPEARFISH      FAIR      10   1  67 NW21G28   29.93S WCI  -9
WINNER         FAIR      22   6  50 NW29      29.99S WCI   4
$$

SDZ004>011-016>023-039-040-062100-
NORTHEAST SOUTH DAKOTA

CITY           SKY/WX    TMP DP  RH WIND       PRES   REMARKS
ABERDEEN       CLOUDY    16   5  62 W32G43    29.81R WCI  -5
WATERTOWN      LGT SNOW  14   8  77 W31G43    29.75R WCI  -7
SISSETON         N/A     19  12  74 NW32G48   29.66R WCI  -1
$$

SDZ017-020-022-023-036>040-048>070-062100-
SOUTHEAST SOUTH DAKOTA

CITY           SKY/WX    TMP DP  RH WIND       PRES   REMARKS
SIOUX FALLS    FLURRIES  22  11  62 W29G40    29.86S WCI   4
HURON          MIX PCPN  17   7  64 NW32G45   29.91R WCI  -3
MITCHELL       CLOUDY    20   9  62 W29G40    29.95S WCI   1
YANKTON        SUNNY    N/A N/A N/A W25G36    29.93R
$$

ABBREVIATIONS USED IN REMARKS
   TC - TEMPERATURE IN CELSIUS
  WCI - WIND CHILL INDEX
   HX - HEAT INDEX
  VSB - VISIBILITY





USA.gov is the U.S. government's official web portal to all federal, state and local government web resources and services.